W4EDP Weather Reports


Display with metric or nautical units.
time (UTC)temp
F
wind
direction
speed
MPH
gust
MPH
rain 1hr
in
rain 24hr
in
rain mn
in
humidity
%
barometer
mb
20220118125744 27 201 0.0 3.0 0.00 0.00 0.00 94 1023.2
20220118124715 28 201 0.0 0.0 0.00 0.00 0.00 94 1023.2
20220118123738 27 201 0.0 1.0 0.00 0.00 0.00 94 1023.0
20220118122707 27 201 0.0 1.0 0.00 0.00 0.00 94 1022.8
20220118121725 27 201 0.0 1.0 0.00 0.00 0.00 94 1022.8
20220118120742 27 201 0.0 3.0 0.00 0.00 0.00 94 1022.5
20220118115738 27 201 0.0 1.0 0.00 0.00 0.00 94 1022.4
20220118114716 27 201 0.0 1.0 0.00 0.00 0.00 93 1022.4
20220118113724 27 201 0.0 1.0 0.00 0.00 0.00 94 1022.2
20220118112743 27 201 1.0 0.0 0.00 0.00 0.00 94 1022.0
20220118111806 27 201 0.0 1.0 0.00 0.00 0.00 94 1022.0
20220118110757 27 201 1.0 6.0 0.00 0.00 0.00 94 1022.0
20220118105726 27 201 0.0 3.0 0.00 0.00 0.00 94 1021.5
20220118104719 27 201 0.0 3.0 0.00 0.00 0.00 94 1021.5
20220118103649 27 201 1.0 3.0 0.00 0.00 0.00 94 1021.5
20220118102709 27 201 1.0 0.0 0.00 0.00 0.00 94 1021.0
20220118101705 27 201 1.0 4.0 0.00 0.00 0.00 94 1021.0
20220118100707 27 201 1.0 4.0 0.00 0.00 0.00 94 1020.9
20220118095643 27 201 1.0 4.0 0.00 0.00 0.00 94 1021.0
20220118094707 27 201 1.0 4.0 0.00 0.00 0.00 93 1021.0
20220118093716 27 201 1.0 3.0 0.00 0.00 0.00 94 1020.9
20220118092643 27 201 1.0 4.0 0.00 0.00 0.00 94 1020.9
20220118091708 27 201 1.0 4.0 0.00 0.00 0.00 94 1020.9
20220118090638 27 201 1.0 3.0 0.00 0.00 0.00 93 1020.8
20220118085613 27 201 1.0 3.0 0.00 0.00 0.00 94 1020.9
20220118084627 28 201 1.0 3.0 0.00 0.00 0.00 94 1020.9
20220118083557 28 201 1.0 4.0 0.00 0.00 0.00 93 1020.9
20220118082557 28 201 1.0 4.0 0.00 0.00 0.00 94 1020.9
20220118081600 28 201 1.0 4.0 0.00 0.00 0.00 94 1020.9
20220118080608 28 201 1.0 6.0 0.00 0.00 0.00 94 1021.0
20220118075621 28 201 1.0 6.0 0.00 0.00 0.00 94 1020.9
20220118074615 28 201 1.0 4.0 0.00 0.00 0.00 94 1020.9
20220118073554 28 201 1.0 4.0 0.00 0.00 0.00 94 1020.8
20220118072537 28 201 1.0 4.0 0.00 0.00 0.00 94 1020.7
20220118071540 28 201 1.0 6.0 0.00 0.00 0.00 94 1020.7
20220118070602 28 201 1.0 6.0 0.00 0.00 0.00 94 1020.4
20220118065557 28 201 1.0 3.0 0.00 0.00 0.00 94 1020.6
20220118064616 28 201 0.0 1.0 0.00 0.00 0.00 94 1020.6
20220118063636 28 201 1.0 0.0 0.00 0.00 0.00 93 1020.7
20220118062613 28 201 1.0 3.0 0.00 0.00 0.00 94 1020.8
20220118061547 27 201 0.0 1.0 0.00 0.00 0.00 93 1020.8
20220118060538 27 201 0.0 1.0 0.00 0.00 0.00 94 1020.7
20220118055546 27 201 0.0 3.0 0.00 0.00 0.00 93 1020.6
20220118054518 28 201 0.0 0.0 0.00 0.00 0.00 93 1020.6
20220118053537 28 201 0.0 0.0 0.00 0.00 0.00 94 1020.6
20220118052513 28 201 0.0 3.0 0.00 0.00 0.00 93 1020.9
20220118051510 28 201 0.0 0.0 0.00 0.00 0.00 93 1020.9
20220118050522 28 201 0.0 0.0 0.00 0.00 0.00 93 1020.9
20220118045459 28 201 0.0 0.0 0.00 0.00 0.00 93 1020.9
20220118044457 28 201 0.0 4.0 0.00 0.00 0.00 93 1020.9
20220118043425 28 201 1.0 4.0 0.00 0.00 0.00 93 1020.9
20220118042406 28 201 1.0 6.0 0.00 0.00 0.00 93 1020.9
20220118041334 28 201 1.0 6.0 0.00 0.00 0.00 93 1020.8
20220118040348 28 201 1.0 6.0 0.00 0.00 0.00 94 1020.8
20220118035357 28 201 1.0 4.0 0.00 0.00 0.00 94 1020.8
20220118034354 28 201 1.0 3.0 0.00 0.00 0.00 94 1020.5
20220118033400 28 201 1.0 4.0 0.00 0.00 0.00 94 1020.5
20220118032356 28 201 1.0 3.0 0.00 0.01 0.00 94 1020.4
20220118031337 28 201 1.0 9.0 0.00 0.01 0.00 94 1020.3
20220118030306 28 201 2.0 9.0 0.00 0.01 0.00 94 1020.3
20220118025308 28 201 1.0 4.0 0.00 0.01 0.00 94 1020.3
20220118024237 28 201 1.0 4.0 0.00 0.01 0.00 94 1020.2
20220118023202 28 201 1.0 6.0 0.00 0.01 0.00 94 1020.2
20220118022146 28 201 1.0 8.0 0.00 0.01 0.00 93 1020.3
20220118021124 28 201 2.0 8.0 0.00 0.02 0.00 93 1019.8
20220118020141 28 201 1.0 6.0 0.00 0.02 0.00 93 1019.8
20220118015151 28 201 2.0 8.0 0.00 0.02 0.00 93 1019.7
20220118014132 28 201 1.0 8.0 0.00 0.02 0.00 93 1019.8
20220118013144 28 201 2.0 6.0 0.00 0.02 0.00 94 1019.8
20220118012204 28 201 2.0 9.0 0.00 0.02 0.00 94 1019.7
20220118011136 28 201 2.0 9.0 0.00 0.03 0.00 94 1019.3
20220118010125 28 201 2.0 8.0 0.00 0.03 0.00 94 1019.3
20220118005106 28 201 2.0 8.0 0.00 0.03 0.00 94 1019.1
20220118004040 28 201 2.0 6.0 0.00 0.03 0.00 94 1018.6
20220118003050 28 201 2.0 15.0 0.00 0.03 0.00 94 1018.6
20220118002038 28 201 2.0 15.0 0.00 0.03 0.00 94 1018.3
20220118001047 28 201 2.0 8.0 0.00 0.04 0.00 94 1018.1
20220118000108 28 201 2.0 8.0 0.00 0.04 0.00 94 1018.1
20220117235130 28 201 2.0 8.0 0.00 0.04 0.00 94 1017.9
20220117234146 28 201 2.0 15.0 0.00 0.04 0.00 94 1017.6
20220117233159 28 201 2.0 15.0 0.00 0.04 0.00 94 1017.6
20220117232218 28 201 2.0 6.0 0.00 0.04 0.00 94 1017.6
20220117231202 28 201 2.0 6.0 0.00 0.05 0.00 94 1017.2
20220117230154 28 201 2.0 11.0 0.00 0.05 0.00 94 1017.2
20220117225146 28 201 2.0 11.0 0.00 0.05 0.00 94 1017.3
20220117224124 28 201 2.0 8.0 0.00 0.05 0.00 94 1016.9
20220117223123 28 201 2.0 8.0 0.00 0.06 0.00 94 1016.9
20220117222112 28 201 2.0 6.0 0.00 0.06 0.00 94 1016.9
20220117221114 28 201 2.0 6.0 0.00 0.06 0.00 94 1016.7
20220117220110 28 201 1.0 9.0 0.00 0.06 0.00 94 1016.7
20220117215115 28 201 2.0 9.0 0.00 0.06 0.00 94 1016.8
20220117214109 28 201 2.0 8.0 0.00 0.07 0.00 94 1016.4
20220117213127 28 201 2.0 8.0 0.00 0.07 0.00 94 1016.4
20220117212058 28 201 1.0 8.0 0.00 0.07 0.00 94 1016.2
20220117211049 28 201 1.0 6.0 0.00 0.07 0.00 94 1015.9
20220117210032 28 201 2.0 6.0 0.00 0.07 0.00 94 1015.9
20220117205049 28 201 1.0 6.0 0.00 0.08 0.00 94 1015.7
20220117204029 28 201 1.0 6.0 0.00 0.08 0.00 94 1015.5
20220117203036 28 201 2.0 6.0 0.00 0.08 0.00 94 1015.5
20220117202048 28 201 2.0 6.0 0.00 0.09 0.00 94 1015.4
20220117201106 28 201 1.0 6.0 0.00 0.09 0.00 94 1015.1
20220117200048 28 201 1.0 8.0 0.00 0.09 0.00 94 1015.1
20220117195043 28 201 2.0 8.0 0.00 0.10 0.00 94 1014.9
20220117194104 28 201 1.0 9.0 0.00 0.10 0.00 95 1014.7
20220117193032 28 201 2.0 9.0 0.00 0.10 0.00 95 1014.7
20220117192009 28 201 2.0 8.0 0.00 0.11 0.00 94 1014.5
20220117191001 28 201 2.0 8.0 0.00 0.11 0.00 95 1014.3
20220117190006 28 201 2.0 8.0 0.00 0.13 0.00 95 1014.3
20220117185010 28 201 2.0 8.0 0.00 0.13 0.00 95 1014.0
20220117184003 28 201 2.0 9.0 0.00 0.13 0.00 95 1013.8
20220117183016 28 201 2.0 9.0 0.00 0.13 0.00 94 1013.8
20220117182011 28 201 2.0 8.0 0.00 0.13 0.00 95 1014.7
20220117180937 28 201 2.0 8.0 0.00 0.14 0.00 95 1014.0
20220117175920 28 201 2.0 17.0 0.00 0.14 0.00 95 1014.0
20220117174853 28 201 2.0 17.0 0.00 0.14 0.00 94 1013.5
20220117173849 28 201 2.0 9.0 0.00 0.15 0.00 94 1013.9
20220117172901 28 201 1.0 17.0 0.00 0.15 0.00 95 1014.0
20220117171851 28 201 2.0 17.0 0.00 0.16 0.00 95 1014.0
20220117170853 28 201 4.0 15.0 0.00 0.16 0.00 95 1013.5
20220117165831 28 201 4.0 13.0 0.00 0.16 0.00 95 1013.6
20220117164854 28 201 2.0 13.0 0.00 0.17 0.00 94 1013.6
20220117163830 28 201 2.0 11.0 0.00 0.17 0.00 95 1013.8
20220117162849 28 201 2.0 9.0 0.00 0.17 0.00 94 1013.5
20220117161841 28 201 2.0 8.0 0.00 0.18 0.00 94 1013.5
20220117160902 28 201 2.0 8.0 0.00 0.18 0.00 95 1013.4
20220117155904 28 201 2.0 18.0 0.00 0.19 0.00 94 1012.9
20220117154851 27 201 4.0 18.0 0.00 0.19 0.00 94 1012.9
20220117153837 28 201 2.0 8.0 0.00 0.20 0.00 95 1012.7
20220117152843 27 201 2.0 9.0 0.00 0.20 0.00 95 1012.5
20220117151813 27 201 2.0 13.0 0.00 0.21 0.00 95 1012.5
20220117150749 27 201 2.0 13.0 0.00 0.21 0.00 94 1012.2
20220117145749 27 201 2.0 9.0 0.00 0.22 0.00 94 1011.9
20220117144717 27 201 2.0 9.0 0.00 0.22 0.00 94 1011.9
20220117143717 27 201 2.0 15.0 0.00 0.23 0.00 94 1011.6
20220117142714 27 201 2.0 15.0 0.00 0.23 0.00 94 1011.2
20220117141723 27 201 2.0 8.0 0.00 0.23 0.00 94 1011.2
20220117140710 27 201 2.0 8.0 0.00 0.24 0.00 94 1010.9
20220117135703 26 201 2.0 11.0 0.00 0.24 0.00 94 1010.4
20220117134709 26 201 4.0 20.0 0.00 0.25 0.00 94 1010.4
20220117133638 26 201 4.0 20.0 0.00 0.25 0.00 94 1010.0
20220117132635 26 201 4.0 11.0 0.00 0.26 0.00 94 1009.9
20220117131615 26 201 2.0 11.0 0.00 0.26 0.00 94 1009.9